Flag for Mexico Weather past 2 weeks in Playa del Carmen, Quintana Roo, Mexico

Now
70 °F

Passing clouds.


Feels Like: 70 °F
Forecast: 75 / 82 °F
Wind: No wind

Location: Cozumel Civ / Mil

Current Time: Mar 2, 2015 at 1:11:54 AM

Latest Report: Mar 2, 2015 at 12:44 AM


Visibility: 7 mi

Pressure: 30.14 "Hg

Humidity: 100%

Dew point: 70 °F

Location of Playa del CarmenLocation

Historic Weather in Playa del Carmen — Graph

°F

Playa del Carmen temperature yesterday

Maximum temperature yesterday: 84 °F (at 1:40 PM)
Minimum temperature yesterday: 68 °F (at 1:41 AM)
Average temperature yesterday: 75 °F

Past Weeks' High & Low Weather Summary

 TemperatureHumidityPressure
High84 °F (Feb 24, 12:53 PM)100% (Feb 16, 2:59 AM)30.26 "Hg (Feb 16, 2:59 AM)
Low54 °F (Feb 16, 6:53 AM)57% (Feb 19, 2:40 PM)29.80 "Hg (Feb 26, 4:50 AM)
Average71 °F85%30.05 "Hg
* Reported Feb 14 11:40 PM — Mar 1 11:45 PM, Playa del Carmen, Weather by CustomWeather, © 2015

Note: Actual official high and low records may vary slightly from our data, if they occured in-between our weather recording intervals... More about our weather records

Advertising

Playa del Carmen weather history for previous 24 hours

 ConditionsComfort  
Time TempWeatherWind HumidityBarometerVisibility
11:45 PM
Sun, Mar 1
72 °FPassing clouds.5 mph100%30.18 "Hg7 mi
10:45 PM72 °FPassing clouds.5 mph100%30.18 "Hg7 mi
9:50 PM72 °FPassing clouds.3 mph100%30.19 "Hg7 mi
8:42 PM73 °FPassing clouds.5 mph94%30.15 "Hg7 mi
7:51 PM73 °FPassing clouds.5 mph94%30.13 "Hg7 mi
6:48 PM75 °FPassing clouds.5 mph89%30.09 "Hg8 mi
5:48 PM79 °FScattered clouds.9 mph79%30.11 "Hg8 mi
4:45 PM79 °FScattered clouds.10 mph79%30.10 "Hg8 mi
3:53 PM81 °FScattered clouds.10 mph74%30.14 "Hg8 mi
2:45 PM81 °FScattered clouds.12 mph70%30.12 "Hg8 mi
1:40 PM84 °FScattered clouds.13 mph58%30.14 "Hg8 mi
12:41 PM82 °FScattered clouds.13 mph62%30.07 "Hg8 mi
11:46 AM81 °FScattered clouds.10 mph70%30.19 "Hg8 mi
10:44 AM79 °FPassing clouds.14 mph74%30.20 "Hg8 mi
9:52 AM79 °FPassing clouds.13 mph74%30.22 "Hg8 mi
8:48 AM75 °FPassing clouds.8 mph89%30.18 "Hg8 mi
7:45 AM72 °FPassing clouds.3 mph100%30.16 "Hg7 mi
6:40 AM72 °FPassing clouds.3 mph100%30.11 "Hg7 mi
5:42 AM72 °FClear.3 mph94%30.11 "Hg7 mi
4:42 AM72 °FClear.3 mph94%30.10 "Hg7 mi
3:40 AM70 °FClear.3 mph100%30.14 "Hg7 mi
2:41 AM70 °FClear.3 mph100%30.12 "Hg7 mi
1:41 AM68 °FClear.No wind100%30.13 "Hg7 mi
Weather by CustomWeather, © 2015

See weather overviewHow to use our weather pages